[[{"header":{"parameterUnit":"m.s-1","parameterCategory":1,"la1":30.2991,"la2":30.254,"lo1":-89.0895,"lo2":-89.0444,"dy":0.0017,"dx":0.0017,"nx":28,"ny":28,"refTime":"2024-03-26T21:00:00:Z","depth":0,"parameterNumber":2,"parameterNumberName":"U-component_of_WINDS"},"data":[0,0,0,0,0,0,0,0,0,0,0,0,0,0,0,0,0,0,0,0,0,0,0,0,0,0,0,0,0,0,0,0,0,0,0,0,0,0,0,0,0,0,0,0,0,0,0,0,0,0,0,0,0,0,0,0,0,0,0.8207,0.8208,0,0.8217,0.8217,0.8218,0.8224,0.8224,0.8224,0.8224,0.8234,0.8234,0.8235,0,0,0,0,0,0,0,0,0,0,0,0,0,0.8195,0.8195,0.8207,0.8208,0.8208,0.8217,0.8217,0.8218,0.8224,0.8224,0.8224,0.8224,0.8234,0.8234,0.8235,0,0,0,0,0,0,0,0,0,0,0,0,0,0.8202,0.8195,0.8207,0.8212,0.8213,0.8217,0.8217,0.8218,0.8224,0.8224,0.8224,0.8224,0.8234,0.8234,0.8235,0.8235,0,0,0.8236,0.8236,0,0,0,0,0,0,0,0,0.8202,0.8203,0.8211,0.8212,0.8212,0.822,0.8217,0.8224,0.8224,0.822,0.8224,0.8224,0.8229,0.823,0.8232,0.8236,0.8236,0.8236,0.8236,0.8236,0.8236,0,0,0,0,0,0,0,0.8201,0.8202,0.8211,0.8211,0.8212,0.8214,0.8215,0.8218,0.8224,0.822,0.8221,0.8222,0.823,0.8231,0.8232,0.8236,0.8236,0.8236,0.8236,0.8236,0.8243,0.8243,0,0,0,0,0,0,0.82,0.8202,0.8211,0.8212,0.8207,0.8214,0.8215,0.8217,0.8224,0.8225,0.8222,0.8222,0.8231,0.8232,0.8232,0.8234,0.8236,0.8236,0.8237,0.8243,0.8243,0.8243,0,0,0,0,0,0,0.82,0.8201,0.8211,0.8207,0.8208,0.8214,0.8216,0.8217,0.8219,0.8225,0.8226,0.8222,0.8231,0.8232,0.8235,0.8234,0.8237,0.8237,0.8243,0.8243,0.8243,0.8237,0,0,0,0,0,0,0.8199,0.8201,0.8201,0.8207,0.8208,0.8212,0.8216,0.8218,0.822,0.822,0.8226,0.8227,0.8231,0.8234,0.8235,0.8235,0.8237,0.8243,0.8243,0.8243,0.8237,0.8237,0.8236,0,0,0,0,0,0.8199,0.8198,0.8201,0.8202,0.8209,0.8212,0.8213,0.8218,0.822,0.822,0.8224,0.8227,0.8234,0.8234,0.8235,0.8235,0.8243,0.8243,0.8243,0.8237,0.8237,0.8236,0,0,0,0,0,0,0.8191,0.8199,0.8202,0.8203,0.8207,0.8214,0.8214,0.8217,0.8221,0.8221,0.8227,0.8228,0.823,0.8233,0.8233,0.8237,0.8239,0.8239,0.8235,0.8234,0.8234,0.8233,0.8237,0,0,0,0,0,0.819,0.8192,0.8199,0.82,0.8202,0.8208,0.8209,0.8213,0.8217,0.8219,0.8223,0.8227,0.8231,0.8233,0.8236,0.8238,0.824,0.8238,0.8238,0.8238,0.8237,0.8239,0.8239,0.8242,0.8242,0.8242,0,0,0.8187,0.8192,0.8193,0.8198,0.8202,0.8205,0.8209,0.8211,0.8213,0.8219,0.8222,0.8226,0.8231,0.8233,0.8235,0.8236,0.8237,0.8238,0.8237,0.8237,0.8239,0.8239,0.8239,0.8242,0.8242,0.8242,0,0,0.8183,0.8186,0.8187,0.8191,0.8197,0.8201,0.8201,0.8207,0.821,0.8213,0.8218,0.8221,0.8226,0.823,0.8233,0.8232,0.8235,0.8233,0.823,0.8232,0.8232,0.8232,0.8231,0.8231,0.8233,0.8233,0.8233,0,0.8178,0.8182,0.8188,0.819,0.8193,0.8199,0.82,0.8204,0.821,0.8212,0.8213,0.8221,0.8225,0.8229,0.8229,0.8231,0.8232,0.8232,0.8231,0.8231,0.8231,0.8231,0.8231,0.8232,0.8232,0.8232,0.8232,0,0.8176,0.8179,0.8179,0.8186,0.8189,0.8191,0.8197,0.8199,0.8203,0.8207,0.8211,0.8216,0.8221,0.8222,0.8226,0.8227,0.8228,0.823,0.8232,0.823,0.823,0.823,0.8232,0.8232,0.8232,0.8232,0,0,0.8166,0.8176,0.8176,0.818,0.8187,0.8189,0.8192,0.8198,0.82,0.8204,0.8207,0.8212,0.8215,0.8218,0.8222,0.8224,0.8223,0.8226,0.8227,0.8226,0.8226,0.8224,0.8223,0.8226,0.8226,0.8226,0.8225,0,0.8162,0.8167,0.8173,0.8176,0.8179,0.8186,0.8189,0.8194,0.8198,0.8202,0.8207,0.821,0.8214,0.8216,0.8218,0.8223,0.8223,0.8223,0.8228,0.8229,0.8226,0.8223,0.8221,0.822,0.8225,0.8225,0.8225,0,0.8158,0.8163,0.8167,0.8175,0.8176,0.8179,0.8184,0.8188,0.8194,0.8197,0.8201,0.8206,0.821,0.8212,0.8218,0.8218,0.8221,0.8224,0.8224,0.8224,0.8226,0.8223,0.822,0.822,0.8226,0.8226,0.8226,0,0.8151,0.8158,0.8161,0.8164,0.8174,0.8175,0.8179,0.8186,0.8189,0.8194,0.8196,0.8202,0.8205,0.821,0.8216,0.8217,0.8221,0.8224,0.8224,0.8224,0.8224,0.8224,0.8221,0.8227,0.8227,0.8227,0.8227,0,0.8146,0.8148,0.8158,0.816,0.8163,0.817,0.8173,0.8177,0.8183,0.8187,0.8193,0.8196,0.8205,0.8209,0.8214,0.8218,0.822,0.8223,0.8224,0.8222,0.8221,0.8223,0.8223,0.8227,0.8227,0.8227,0.8227,0,0.8137,0.8144,0.8148,0.8157,0.816,0.8161,0.8169,0.8172,0.8177,0.8181,0.8183,0.8191,0.8197,0.8204,0.8212,0.8215,0.8219,0.8221,0.8217,0.8217,0.8217,0.8217,0.8215,0.8215,0.8221,0.8221,0.8221,0,0.8133,0.8135,0.8145,0.8147,0.8151,0.8156,0.8159,0.8167,0.8171,0.8179,0.818,0.8187,0.8192,0.8201,0.8208,0.8214,0.8216,0.8215,0.8217,0.8215,0.8216,0.8216,0.8216,0.8214,0.8214,0.8214,0.8214,0,0.8126,0.8129,0.8134,0.8141,0.8145,0.815,0.8156,0.8158,0.8167,0.8171,0.8177,0.8181,0.8189,0.8196,0.8203,0.8208,0.8212,0.8213,0.8214,0.8211,0.8209,0.821,0.8215,0.8213,0.8213,0.8213,0.8213,0.8213,0.8119,0.8121,0.8129,0.8134,0.8139,0.8145,0.8148,0.8154,0.8159,0.8167,0.8172,0.8178,0.8185,0.8196,0.8201,0.8206,0.8207,0.8208,0.8208,0.8208,0.8207,0.8209,0.8207,0.8207,0.8207,0.8207,0.8207,0,0.8112,0.8117,0.8122,0.813,0.8135,0.814,0.8147,0.815,0.8155,0.8162,0.8168,0.8175,0.8182,0.819,0.8197,0.82,0.8202,0.8201,0.8201,0.8202,0.8205,0.8204,0.8199,0.8199,0.8199,0.8199,0.8199,0.8199,0.8108,0.8112,0.8117,0.8125,0.813,0.8136,0.814,0.8145,0.8151,0.8159,0.8165,0.817,0.8178,0.8186,0.8192,0.8195,0.8197,0.8196,0.8198,0.8201,0.8202,0.8202,0.8201,0.8196,0.8196,0.8195,0.8195,0.8195]},{"header":{"parameterUnit":"m.s-1","parameterCategory":1,"la1":30.2991,"la2":30.254,"lo1":-89.0895,"lo2":-89.0444,"dy":0.0017,"dx":0.0017,"nx":28,"ny":28,"refTime":"2024-03-26T21:00:00:Z","depth":0,"parameterNumber":3,"parameterNumberName":"V-component_of_WINDS"},"data":[0,0,0,0,0,0,0,0,0,0,0,0,0,0,0,0,0,0,0,0,0,0,0,0,0,0,0,0,0,0,0,0,0,0,0,0,0,0,0,0,0,0,0,0,0,0,0,0,0,0,0,0,0,0,0,0,0,0,-6.9905,-6.9907,0,-7.0088,-7.009,-7.0092,-7.003,-7.0026,-7.0022,-7.0018,-7.0202,-7.021,-7.0218,0,0,0,0,0,0,0,0,0,0,0,0,0,-6.9499,-6.9506,-6.9905,-6.9907,-6.9909,-7.0088,-7.009,-7.0092,-7.0031,-7.0026,-7.0021,-7.0016,-7.0199,-7.0209,-7.0219,0,0,0,0,0,0,0,0,0,0,0,0,0,-6.9678,-6.9509,-6.9904,-6.99,-6.9902,-7.0087,-7.009,-7.0093,-7.0032,-7.0026,-7.002,-7.0014,-7.0195,-7.0208,-7.0221,-7.042,0,0,-7.026,-7.0266,0,0,0,0,0,0,0,0,-6.9667,-6.9692,-6.9898,-6.9901,-6.9903,-7.003,-7.0014,-7.0203,-7.0033,-6.9982,-7.0018,-7.0011,-7.0149,-7.0165,-7.0213,-7.0429,-7.0437,-7.0261,-7.0269,-7.0275,-7.0278,0,0,0,0,0,0,0,-6.9655,-6.9684,-6.9977,-6.9901,-6.9904,-6.9888,-6.9907,-7.0049,-7.0097,-6.9986,-6.9982,-7.0005,-7.0149,-7.0201,-7.0217,-7.0439,-7.0261,-7.0272,-7.028,-7.0285,-7.0828,-7.0835,0,0,0,0,0,0,-6.9642,-6.9674,-6.9971,-6.9983,-6.9768,-6.99,-6.9921,-6.9995,-7.0095,-7.0105,-7.001,-7.0001,-7.0181,-7.0202,-7.0223,-7.0464,-7.0275,-7.0287,-7.0294,-7.0822,-7.083,-7.0837,0,0,0,0,0,0,-6.9634,-6.9669,-6.9964,-6.9828,-6.9864,-6.9914,-6.9997,-7.0002,-7.0053,-7.0113,-7.0121,-7.0054,-7.0177,-7.0205,-7.0372,-7.0469,-7.0292,-7.0304,-7.0814,-7.0824,-7.0834,-7.0947,0,0,0,0,0,0,-6.9622,-6.9666,-6.9744,-6.983,-6.9871,-7.0112,-7.0003,-7.001,-7.0076,-7.0067,-7.0157,-7.0166,-7.0175,-7.0353,-7.0385,-7.0484,-7.0314,-7.0805,-7.0819,-7.083,-7.0935,-7.096,-7.0981,0,0,0,0,0,-6.9608,-6.9767,-6.9748,-6.9784,-6.9969,-7.0117,-7.0141,-7.015,-7.0084,-7.0162,-7.02,-7.0163,-7.0453,-7.0371,-7.0406,-7.051,-7.0799,-7.0815,-7.0829,-7.0924,-7.0955,-7.098,0,0,0,0,0,0,-6.969,-6.9778,-6.9758,-6.995,-7.0027,-7.0107,-7.0205,-7.0181,-7.0277,-7.0264,-7.0269,-7.029,-7.0462,-7.0503,-7.0409,-7.0709,-7.0616,-7.0639,-7.0677,-7.0706,-7.0728,-7.0716,-7.0325,0,0,0,0,0,-6.9731,-6.9845,-6.9915,-7.0078,-7.0118,-7.0155,-7.022,-7.022,-7.0299,-7.0331,-7.0381,-7.0458,-7.0567,-7.0638,-7.0741,-7.094,-7.0958,-7.1029,-7.1052,-7.107,-7.109,-7.1199,-7.1231,-7.0887,-7.0886,-7.0886,0,0,-6.9815,-6.9878,-6.9949,-7.0096,-7.0156,-7.0273,-7.0182,-7.031,-7.0397,-7.0349,-7.0511,-7.0551,-7.0637,-7.0821,-7.0905,-7.086,-7.119,-7.109,-7.1104,-7.1114,-7.1218,-7.125,-7.1279,-7.0897,-7.0895,-7.0893,0,0,-7.003,-7.0089,-7.0232,-7.0293,-7.0385,-7.0409,-7.0443,-7.0527,-7.0552,-7.0714,-7.0682,-7.0784,-7.0971,-7.1034,-7.1091,-7.133,-7.1299,-7.1363,-7.1484,-7.159,-7.1617,-7.1641,-7.1727,-7.1758,-7.1382,-7.1383,-7.1383,0,-7.0124,-7.0301,-7.0307,-7.0439,-7.0504,-7.0468,-7.0612,-7.0671,-7.0791,-7.0837,-7.0785,-7.102,-7.1075,-7.1274,-7.1332,-7.1379,-7.1418,-7.1353,-7.1612,-7.1637,-7.1659,-7.1741,-7.1774,-7.139,-7.1389,-7.1388,-7.1388,0,-7.0412,-7.0535,-7.0638,-7.0757,-7.0834,-7.0971,-7.0998,-7.1075,-7.1068,-7.1097,-7.1263,-7.1328,-7.1444,-7.1491,-7.1485,-7.169,-7.1659,-7.161,-7.1518,-7.1699,-7.1777,-7.1808,-7.14,-7.1398,-7.1396,-7.1394,0,0,-7.0684,-7.0805,-7.0843,-7.0897,-7.0996,-7.109,-7.1225,-7.134,-7.1407,-7.149,-7.1603,-7.1763,-7.1718,-7.1783,-7.1783,-7.1876,-7.2062,-7.1816,-7.1818,-7.186,-7.2292,-7.2329,-7.2366,-7.2042,-7.2048,-7.2053,-7.2285,0,-7.0908,-7.1147,-7.1157,-7.1374,-7.1488,-7.1455,-7.1572,-7.1645,-7.1675,-7.1775,-7.1808,-7.1921,-7.1854,-7.1892,-7.1982,-7.2021,-7.2149,-7.2004,-7.2147,-7.2152,-7.2128,-7.2406,-7.2446,-7.2662,-7.2315,-7.232,-7.2324,0,-7.1201,-7.1296,-7.1525,-7.1608,-7.1656,-7.1762,-7.1869,-7.1965,-7.2046,-7.2061,-7.2134,-7.2121,-7.2258,-7.2161,-7.2349,-7.225,-7.2309,-7.2337,-7.2345,-7.236,-7.225,-7.2429,-7.2731,-7.2764,-7.2372,-7.2368,-7.2364,0,-7.1378,-7.1563,-7.1724,-7.1771,-7.1872,-7.1947,-7.1992,-7.2067,-7.2136,-7.2229,-7.2273,-7.238,-7.2438,-7.2521,-7.2537,-7.2464,-7.2726,-7.2629,-7.2743,-7.2743,-7.28,-7.2797,-7.3117,-7.2837,-7.2836,-7.2835,-7.2835,0,-7.1627,-7.1769,-7.1805,-7.1905,-7.2062,-7.2072,-7.2227,-7.2266,-7.2334,-7.244,-7.2417,-7.2516,-7.2531,-7.2633,-7.2646,-7.2801,-7.2827,-7.2843,-7.2845,-7.2847,-7.2845,-7.2886,-7.2872,-7.2844,-7.2842,-7.2841,-7.2839,0,-7.1852,-7.1882,-7.2056,-7.2137,-7.2161,-7.2274,-7.2343,-7.2438,-7.2465,-7.26,-7.2631,-7.2675,-7.2795,-7.2819,-7.2959,-7.2968,-7.3153,-7.3139,-7.3126,-7.3125,-7.3238,-7.3227,-7.3597,-7.3646,-7.3332,-7.3335,-7.3338,0,-7.201,-7.2119,-7.2212,-7.2283,-7.2332,-7.2444,-7.2515,-7.2528,-7.2602,-7.2703,-7.2786,-7.2904,-7.2999,-7.3191,-7.3234,-7.3342,-7.3332,-7.3454,-7.3348,-7.3346,-7.3335,-7.3329,-7.334,-7.3474,-7.3478,-7.348,-7.3483,0,-7.2288,-7.2298,-7.2401,-7.251,-7.2595,-7.2682,-7.2763,-7.2821,-7.2845,-7.2929,-7.3053,-7.3127,-7.3271,-7.3388,-7.3496,-7.3541,-7.3517,-7.3516,-7.3548,-7.3551,-7.3539,-7.3548,-7.3183,-7.3507,-7.3505,-7.3503,-7.3502,-7.3501,-7.2485,-7.258,-7.2662,-7.2778,-7.2841,-7.2918,-7.3012,-7.3052,-7.3155,-7.3275,-7.3276,-7.3411,-7.3489,-7.3632,-7.3683,-7.3788,-7.3749,-7.3796,-7.3808,-7.3819,-7.383,-7.3522,-7.3807,-7.3807,-7.3806,-7.3805,-7.3805,0,-7.2762,-7.2813,-7.292,-7.3036,-7.3127,-7.3097,-7.3186,-7.3264,-7.3384,-7.3459,-7.3554,-7.3695,-7.3809,-7.3861,-7.3973,-7.4047,-7.4038,-7.4076,-7.4071,-7.4082,-7.3858,-7.382,-7.4081,-7.4081,-7.4081,-7.408,-7.408,-7.408,-7.2918,-7.3078,-7.3097,-7.3288,-7.3337,-7.3471,-7.3524,-7.3595,-7.3656,-7.3816,-7.3911,-7.3944,-7.4011,-7.4127,-7.423,-7.4242,-7.4285,-7.4328,-7.4335,-7.4125,-7.4097,-7.4071,-7.4035,-7.4337,-7.4337,-7.455,-7.4552,-7.4554]}]]